Вернуться в каталог

YINHE 2-05

АктивенСвязьVLEO
NORAD 51948·PAYLOAD·🇨🇳 China
Это название спутника еще не подтверждено официальными источниками.

Запущен Mar 5, 2022 с Xichang Satellite Launch Center

Loading…

Ближайшие Пролёты (ближайшие 24 часа)

TLE

СвежийSource: Space-Track

Эпоха: Sep 14, 2026, 23:06 UTC

1 51948U 22023C   26257.96309337  .00011994  00000-0  50224-3 0  9998
2 51948  63.4865 326.5371 0115772 352.2970   7.6359 15.17952227251345

Отслеживайте YINHE 2-05 в реальном времени с AllMySat

Download on the App Store